This is the latest recevied weather packets stored in our database for station/object SP8PRZ-1. If no packets are shown the sender has not sent any weather packets the latest 10 day(s).
| Time | Temp. | Humidity | Pressure | Rain* | Wind** | Luminosity | Snow |
|---|---|---|---|---|---|---|---|
| 1788002858 | 16.67° C | 93% | 1021.9 hPa | - | - | - | - |
| 1788000457 | 15.56° C | 94% | 1021.9 hPa | - | - | - | - |
| 1787992277 | 15° C | 90% | 1021.2 hPa | - | - | - | - |
| 1787989876 | 15° C | 90% | 1020.9 hPa | - | - | - | - |
| 1787987474 | 14.44° C | 88% | 1020.7 hPa | - | - | - | - |
| 1787985073 | 13.33° C | 88% | 1020.5 hPa | - | - | - | - |
| 1787982671 | 12.78° C | 80% | 1021 hPa | - | - | - | - |
| 1787980269 | 14.44° C | 68% | 1020.1 hPa | - | - | - | - |
| 1787977867 | 13.89° C | 70% | 1019.2 hPa | - | - | - | - |
| 1787975484 | 12.78° C | 69% | 1019.5 hPa | - | - | - | - |
| 1787973082 | 12.78° C | 72% | 1019.6 hPa | - | - | - | - |
| 1787970680 | 12.78° C | 73% | 1019.7 hPa | - | - | - | - |
| 1787968279 | 13.33° C | 65% | 1020.2 hPa | - | - | - | - |
| 1787965877 | 13.33° C | 71% | 1020.4 hPa | - | - | - | - |
| 1787963475 | 13.33° C | 72% | 1020.8 hPa | - | - | - | - |
| 1787961073 | 13.33° C | 61% | 1021.4 hPa | - | - | - | - |
| 1787958671 | 13.89° C | 63% | 1021.6 hPa | - | - | - | - |
| 1787956266 | 15° C | 63% | 1022.2 hPa | - | - | - | - |
| 1787953879 | 15.56° C | 62% | 1022.7 hPa | - | - | - | - |
| 1787951478 | 16.11° C | 57% | 1023 hPa | - | - | - | - |
| 1787949076 | 17.22° C | 57% | 1023.1 hPa | - | - | - | - |
| 1787946673 | 17.78° C | 55% | 1022.7 hPa | - | - | - | - |
| 1787944272 | 17.78° C | 53% | 1023.2 hPa | - | - | - | - |
| 1787941870 | 18.33° C | 51% | 1023.5 hPa | - | - | - | - |
| 1787939468 | 19.44° C | 48% | 1023.5 hPa | - | - | - | - |
* Rain since midnight (hover to see other rain measurements)
** Current wind speed in m/s (hover to see current wind gust speed)